Date String (YYYY-MM-DD hh:mm:ss) UTC,Instrument flags,Ambient pressure (hPa),Sample flow (lpm),Bypass flow (lpm),Sample temperature (°C),Ambient temperature (°C),ASC tube jacket temperature (°C),LED temperature (°C),Box temperature (°C),Sample RH (%),Span deviation,Mass concentration (μg/m³),Mass concentration (μg/m³),Mass concentration (μg/m³)
DateTimeUTC,F1_M11,P_M11,Q1_M11,Q2_M11,T1_M11,T2_M11,T3_M11,T4_M11,T5_M11,U1_M11,ZSPAN_M11,X0_M11,X2_M11,X1_M11
2022-05-15 08:00:00,,0828.3,5.00,0.00,29.8,28.4,00.0,38.8,31.5,10.7,0000.0,0012.59,0003.88,0002.43
2022-05-15 08:01:00,,0828.3,5.00,0.00,29.8,28.5,00.0,38.8,31.5,10.5,0000.0,0011.86,0003.80,0002.41
2022-05-15 08:02:00,,0828.3,5.00,0.00,29.8,28.5,00.0,38.8,31.5,10.5,0000.0,0011.67,0003.76,0002.41
2022-05-15 08:03:00,,0828.4,5.01,0.00,29.8,28.5,00.0,38.8,31.5,10.4,0000.0,0011.09,0003.77,0002.41
2022-05-15 08:04:00,,0828.3,5.00,0.00,29.8,28.5,00.0,38.8,31.5,10.4,0000.0,0010.48,0003.75,0002.36
2022-05-15 08:05:00,,0828.3,4.99,0.00,29.9,28.6,00.0,38.8,31.6,10.4,0000.0,0010.31,0003.72,0002.32
2022-05-15 08:06:00,,0828.3,4.99,0.00,29.9,28.6,00.0,38.8,31.6,10.4,0000.0,0010.28,0003.70,0002.29
2022-05-15 08:07:00,,0828.3,5.00,0.00,29.9,28.6,00.0,38.8,31.6,10.4,0000.0,0010.10,0003.71,0002.26
2022-05-15 08:08:00,,0828.3,5.01,0.00,29.9,28.6,00.0,38.8,31.6,10.4,0000.0,0009.70,0003.68,0002.23
2022-05-15 08:09:00,,0828.3,5.00,0.00,29.9,28.6,00.0,38.8,31.6,10.3,0000.0,0009.62,0003.69,0002.23
2022-05-15 08:10:00,,0828.3,4.99,0.00,29.9,28.7,00.0,38.8,31.7,10.3,0000.0,0009.44,0003.65,0002.22
2022-05-15 08:11:00,,0828.3,5.00,0.00,29.9,28.7,00.0,38.8,31.7,10.3,0000.0,0008.41,0003.65,0002.22
2022-05-15 08:12:00,,0828.3,5.00,0.00,29.9,28.7,00.0,38.8,31.7,10.3,0000.0,0008.33,0003.65,0002.23
2022-05-15 08:13:00,,0828.2,5.01,0.00,29.9,28.7,00.0,38.8,31.7,10.2,0000.0,0008.38,0003.68,0002.22
2022-05-15 08:14:00,,0828.2,5.00,0.00,30.0,28.7,00.0,38.9,31.7,10.2,0000.0,0008.48,0003.70,0002.23
2022-05-15 08:15:00,,0828.3,5.00,0.00,30.0,28.8,00.0,38.9,31.7,10.2,0000.0,0008.42,0003.68,0002.23
2022-05-15 08:16:00,,0828.3,4.99,0.00,30.0,28.8,00.0,38.9,31.7,10.2,0000.0,0008.57,0003.67,0002.24
2022-05-15 08:17:00,,0828.3,5.00,0.00,30.0,28.8,00.0,38.9,31.7,10.2,0000.0,0008.59,0003.65,0002.25
2022-05-15 08:18:00,,0828.4,5.01,0.00,30.0,28.7,00.0,38.9,31.7,10.2,0000.0,0008.51,0003.67,0002.25
2022-05-15 08:19:00,,0828.4,5.01,0.00,30.0,28.8,00.0,38.9,31.7,10.2,0000.0,0009.35,0003.67,0002.25
2022-05-15 08:20:00,,0828.4,4.99,0.00,30.0,28.7,00.0,38.9,31.7,10.1,0000.0,0009.98,0003.63,0002.24
2022-05-15 08:21:00,,0828.4,5.00,0.00,30.0,28.8,00.0,38.9,31.7,10.2,0000.0,0010.19,0003.63,0002.24
2022-05-15 08:22:00,,0828.5,5.01,0.00,30.0,28.8,00.0,38.9,31.7,10.3,0000.0,0010.39,0003.66,0002.24
2022-05-15 08:23:00,,0828.5,5.00,0.00,30.0,28.8,00.0,38.9,31.7,10.2,0000.0,0010.78,0003.67,0002.24
2022-05-15 08:24:00,,0828.5,4.98,0.00,30.0,28.7,00.0,38.9,31.7,10.2,0000.0,0010.98,0003.64,0002.22
2022-05-15 08:25:00,,0828.6,4.99,0.00,30.0,28.7,00.0,38.9,31.7,10.2,0000.0,0010.84,0003.58,0002.21
2022-05-15 08:26:00,,0829.0,5.00,0.00,30.0,28.7,00.0,38.9,31.7,10.2,0000.0,0011.10,0003.58,0002.21
2022-05-15 08:27:00,,0829.0,5.01,0.00,30.0,28.7,00.0,38.9,31.7,10.2,0000.0,0010.96,0003.60,0002.21
2022-05-15 08:28:00,,0829.0,5.01,0.00,30.0,28.7,00.0,38.9,31.7,10.1,0000.0,0010.95,0003.59,0002.20
2022-05-15 08:29:00,,0829.0,5.01,0.00,30.0,28.8,00.0,38.9,31.7,10.1,0000.0,0011.00,0003.59,0002.21
2022-05-15 08:30:00,,0829.0,5.00,0.00,30.0,28.8,00.0,38.9,31.7,10.0,0000.0,0010.33,0003.59,0002.21
2022-05-15 08:31:00,,0828.9,4.99,0.00,30.0,28.7,00.0,38.9,31.7,10.0,0000.0,0009.44,0003.60,0002.21
2022-05-15 08:32:00,,0829.1,4.99,0.00,30.0,28.7,00.0,38.9,31.7,10.0,0000.0,0009.60,0003.61,0002.20
2022-05-15 08:33:00,,0829.1,5.00,0.00,30.0,28.7,00.0,39.0,31.7,10.1,0000.0,0009.69,0003.57,0002.20
2022-05-15 08:34:00,,0829.0,5.01,0.00,30.0,28.7,00.0,39.0,31.7,10.1,0000.0,0009.17,0003.51,0002.21
2022-05-15 08:35:00,,0828.9,5.01,0.00,30.0,28.7,00.0,39.0,31.7,10.0,0000.0,0008.59,0003.51,0002.21
2022-05-15 08:36:00,,0828.8,5.00,0.00,30.0,28.7,00.0,39.0,31.7,10.1,0000.0,0008.55,0003.50,0002.22
2022-05-15 08:37:00,,0828.6,5.00,0.00,30.0,28.8,00.0,39.0,31.7,10.1,0000.0,0008.37,0003.54,0002.22
2022-05-15 08:38:00,,0828.5,5.00,0.00,30.0,28.8,00.0,39.0,31.7,10.1,0000.0,0008.63,0003.55,0002.23
2022-05-15 08:39:00,,0828.8,5.00,0.00,30.0,28.8,00.0,39.0,31.7,10.1,0000.0,0009.22,0003.59,0002.24
2022-05-15 08:40:00,,0829.0,5.00,0.00,30.0,28.9,00.0,39.0,31.8,10.6,0000.0,0009.53,0003.56,0002.21
2022-05-15 08:41:00,,0829.0,5.00,0.00,30.0,28.9,00.0,39.0,31.8,11.2,0000.0,0009.55,0003.55,0002.20
2022-05-15 08:42:00,,0828.9,5.00,0.00,30.0,28.9,00.0,39.0,31.8,11.1,0000.0,0009.54,0003.54,0002.21
2022-05-15 08:43:00,,0829.0,5.00,0.00,30.0,28.9,00.0,39.0,31.7,10.9,0000.0,0009.18,0003.50,0002.21
2022-05-15 08:44:00,,0829.0,4.99,0.00,30.0,28.9,00.0,39.0,31.7,10.9,0000.0,0008.89,0003.49,0002.22
2022-05-15 08:45:00,,0828.8,4.99,0.00,30.0,28.9,00.0,39.0,31.7,10.9,0000.0,0009.58,0003.52,0002.23
2022-05-15 08:46:00,,0828.8,5.00,0.00,29.9,28.9,00.0,39.0,31.7,10.7,0000.0,0009.67,0003.53,0002.23
2022-05-15 08:47:00,,0828.6,5.00,0.00,29.9,28.9,00.0,38.9,31.7,10.6,0000.0,0009.73,0003.52,0002.22
2022-05-15 08:48:00,,0828.6,5.01,0.00,29.9,28.9,00.0,38.9,31.7,10.5,0000.0,0009.80,0003.52,0002.21
2022-05-15 08:49:00,,0828.7,4.99,0.00,29.9,28.9,00.0,38.9,31.7,10.5,0000.0,0009.63,0003.52,0002.21
2022-05-15 08:50:00,,0828.6,5.00,0.00,29.9,29.0,00.0,38.9,31.7,10.5,0000.0,0008.92,0003.47,0002.22
2022-05-15 08:51:00,,0828.6,5.01,0.00,29.9,28.9,00.0,38.9,31.7,10.7,0000.0,0008.35,0003.44,0002.24
2022-05-15 08:52:00,,0828.6,5.00,0.00,29.9,28.9,00.0,38.9,31.6,10.7,0000.0,0008.34,0003.44,0002.23
2022-05-15 08:53:00,,0828.6,4.99,0.00,29.9,28.9,00.0,38.9,31.6,10.4,0000.0,0008.56,0003.46,0002.24
2022-05-15 08:54:00,,0828.7,4.99,0.00,29.8,28.9,00.0,38.9,31.5,10.3,0000.0,0009.89,0003.48,0002.23
2022-05-15 08:55:00,,0828.6,5.01,0.00,29.8,28.9,00.0,38.9,31.5,10.3,0000.0,0010.09,0003.50,0002.22
2022-05-15 08:56:00,,0828.6,5.01,0.00,29.8,28.9,00.0,38.9,31.5,10.3,0000.0,0009.66,0003.51,0002.22
2022-05-15 08:57:00,,0828.9,5.00,0.00,29.8,28.9,00.0,38.9,31.5,10.3,0000.0,0009.87,0003.57,0002.21
2022-05-15 08:58:00,,0829.0,4.99,0.00,29.8,28.9,00.0,38.8,31.5,10.5,0000.0,0009.81,0003.57,0002.22
2022-05-15 08:59:00,,0829.0,4.99,0.00,29.8,28.9,00.0,38.8,31.5,10.8,0000.0,0009.69,0003.57,0002.22
